When you browse on this site, cookies collect data to enhance your experience and personalize the content and advertising you see.
Visit our Privacy Policy to learn more. By continuing to use the site, you agree to this use of cookies and data.
  • In Latvia
  • List of Countries
  • For 7 days
  • Water Temperature
  • Weather Map
  • Weather Widgets
  • user-avatar
    Login

    Hourly Weather Philadelphia

    Today, 15 September, Sunday

    Time Temperature Precipitation Wind Pressure Humidity
    00:00 +24°C° 0.1 mm 1 mps 764 mmHg 85%
    01:00 +24°C° 0.1 mm 1 mps 764 mmHg 86%
    02:00 +24°C° 0.3 mm 2 mps 764 mmHg 87%
    03:00 +24°C° 0.3 mm 2 mps 764 mmHg 89%
    04:00 +24°C° 0.3 mm 2 mps 764 mmHg 91%
    05:00 +24°C° 0.1 mm 1 mps 764 mmHg 90%
    06:00 +24°C° 0.1 mm 1 mps 764 mmHg 89%
    07:00 +24°C° 0.1 mm 1 mps 764 mmHg 89%
    08:00 +25°C° 0 mm 1 mps 764 mmHg 79%
    09:00 +27°C° 0 mm 1 mps 764 mmHg 70%
    10:00 +28°C° 0 mm 2 mps 764 mmHg 61%
    11:00 +29°C° 0 mm 2 mps 764 mmHg 53%
    12:00 +30°C° 0 mm 2 mps 764 mmHg 46%
    13:00 +32°C° 0 mm 2 mps 763 mmHg 39%
    14:00 +31°C° 0 mm 2 mps 763 mmHg 38%
    15:00 +31°C° 0 mm 2 mps 762 mmHg 37%
    16:00 +31°C° 0 mm 2 mps 762 mmHg 35%
    17:00 +29°C° 0 mm 2 mps 762 mmHg 39%
    18:00 +28°C° 0 mm 2 mps 762 mmHg 43%
    19:00 +27°C° 0 mm 1 mps 762 mmHg 47%
    20:00 +26°C° 0 mm 1 mps 762 mmHg 48%
    21:00 +25°C° 0 mm 1 mps 762 mmHg 50%
    22:00 +25°C° 0 mm 1 mps 762 mmHg 51%
    23:00 +24°C° 0 mm 1 mps 762 mmHg 52%

    Tomorrow, 16 September, Monday

    Time Temperature Precipitation Wind Pressure Humidity
    00:00 +24°C° 0 mm 1 mps 762 mmHg 52%
    01:00 +24°C° 0 mm 1 mps 762 mmHg 53%
    02:00 +24°C° 0 mm 1 mps 761 mmHg 53%
    03:00 +23°C° 0 mm 1 mps 761 mmHg 54%
    04:00 +23°C° 0 mm 1 mps 761 mmHg 54%
    05:00 +23°C° 0 mm 1 mps 761 mmHg 54%
    06:00 +24°C° 0 mm 1 mps 761 mmHg 54%
    07:00 +22°C° 0 mm 0 mps 761 mmHg 55%
    08:00 +26°C° 0 mm 1 mps 761 mmHg 50%
    09:00 +28°C° 0 mm 1 mps 761 mmHg 45%
    10:00 +29°C° 0 mm 2 mps 761 mmHg 40%
    11:00 +30°C° 0 mm 2 mps 761 mmHg 41%
    12:00 +30°C° 0 mm 2 mps 760 mmHg 41%
    13:00 +30°C° 0 mm 3 mps 760 mmHg 41%
    14:00 +30°C° 0 mm 3 mps 759 mmHg 42%
    15:00 +31°C° 0 mm 3 mps 759 mmHg 43%
    16:00 +31°C° 0 mm 3 mps 759 mmHg 44%
    17:00 +30°C° 0 mm 3 mps 759 mmHg 49%
    18:00 +29°C° 0 mm 2 mps 759 mmHg 53%
    19:00 +28°C° 0 mm 2 mps 760 mmHg 57%
    20:00 +27°C° 0 mm 2 mps 760 mmHg 60%
    21:00 +26°C° 0 mm 3 mps 760 mmHg 62%
    22:00 +26°C° 0 mm 3 mps 760 mmHg 65%
    23:00 +25°C° 0 mm 3 mps 761 mmHg 67%

    Day after tomorrow, 17 September, Tuesday

    Time Temperature Precipitation Wind Pressure Humidity
    00:00 +24°C° 0 mm 3 mps 761 mmHg 68%
    01:00 +24°C° 0 mm 3 mps 761 mmHg 70%
    02:00 +22°C° 0 mm 3 mps 761 mmHg 70%
    03:00 +22°C° 0 mm 3 mps 761 mmHg 71%
    04:00 +21°C° 0 mm 3 mps 761 mmHg 72%
    05:00 +21°C° 0 mm 4 mps 762 mmHg 67%
    06:00 +20°C° 0 mm 4 mps 763 mmHg 62%
    07:00 +20°C° 0 mm 4 mps 763 mmHg 58%
    08:00 +21°C° 0 mm 4 mps 764 mmHg 53%
    09:00 +22°C° 0 mm 4 mps 764 mmHg 49%
    10:00 +23°C° 0 mm 4 mps 764 mmHg 45%
    11:00 +25°C° 0 mm 3 mps 764 mmHg 41%
    12:00 +26°C° 0 mm 3 mps 764 mmHg 37%
    13:00 +27°C° 0 mm 3 mps 763 mmHg 34%
    14:00 +27°C° 0 mm 3 mps 763 mmHg 34%
    15:00 +26°C° 0 mm 3 mps 763 mmHg 34%
    16:00 +26°C° 0 mm 3 mps 763 mmHg 34%
    17:00 +25°C° 0 mm 3 mps 763 mmHg 39%
    18:00 +22°C° 0 mm 3 mps 764 mmHg 44%
    19:00 +21°C° 0 mm 3 mps 764 mmHg 49%
    20:00 +20°C° 0 mm 2 mps 764 mmHg 53%
    21:00 +20°C° 0 mm 2 mps 764 mmHg 57%
    22:00 +20°C° 0 mm 1 mps 765 mmHg 60%
    23:00 +20°C° 0 mm 1 mps 765 mmHg 62%

    18 September, Wednesday

    Time Temperature Precipitation Wind Pressure Humidity
    00:00 +19°C° 0 mm 2 mps 765 mmHg 64%
    01:00 +18°C° 0 mm 2 mps 764 mmHg 65%
    02:00 +19°C° 0 mm 1 mps 765 mmHg 67%
    03:00 +19°C° 0 mm 1 mps 765 mmHg 68%
    04:00 +19°C° 0 mm 1 mps 765 mmHg 70%
    05:00 +19°C° 0 mm 1 mps 765 mmHg 70%
    06:00 +19°C° 0 mm 1 mps 765 mmHg 69%
    07:00 +19°C° 0 mm 1 mps 766 mmHg 69%
    08:00 +19°C° 0 mm 2 mps 766 mmHg 63%
    09:00 +21°C° 0 mm 2 mps 766 mmHg 57%
    10:00 +23°C° 0 mm 2 mps 766 mmHg 52%
    11:00 +24°C° 0 mm 2 mps 766 mmHg 50%
    12:00 +24°C° 0 mm 2 mps 766 mmHg 48%
    13:00 +25°C° 0 mm 2 mps 766 mmHg 46%
    14:00 +24°C° 0 mm 2 mps 766 mmHg 47%
    15:00 +24°C° 0 mm 2 mps 765 mmHg 48%
    16:00 +24°C° 0 mm 2 mps 765 mmHg 49%
    17:00 +23°C° 0 mm 2 mps 766 mmHg 52%
    18:00 +21°C° 0 mm 2 mps 766 mmHg 56%
    19:00 +20°C° 0 mm 3 mps 766 mmHg 59%
    20:00 +19°C° 0 mm 2 mps 766 mmHg 61%
    21:00 +18°C° 0 mm 2 mps 767 mmHg 63%
    22:00 +18°C° 0 mm 2 mps 767 mmHg 65%
    23:00 +19°C° 0 mm 1 mps 767 mmHg 66%

    19 September, Thursday

    Time Temperature Precipitation Wind Pressure Humidity
    00:00 +18°C° 0 mm 1 mps 767 mmHg 67%
    01:00 +18°C° 0 mm 1 mps 767 mmHg 67%
    02:00 +18°C° 0 mm 1 mps 767 mmHg 68%
    03:00 +18°C° 0 mm 1 mps 767 mmHg 69%
    04:00 +18°C° 0 mm 1 mps 767 mmHg 70%
    05:00 +18°C° 0 mm 1 mps 767 mmHg 70%
    06:00 +18°C° 0 mm 1 mps 767 mmHg 69%
    07:00 +18°C° 0 mm 1 mps 768 mmHg 69%
    08:00 +20°C° 0 mm 1 mps 768 mmHg 62%
    09:00 +21°C° 0 mm 1 mps 768 mmHg 56%
    10:00 +23°C° 0 mm 2 mps 768 mmHg 49%
    11:00 +24°C° 0 mm 1 mps 768 mmHg 44%
    12:00 +26°C° 0 mm 1 mps 768 mmHg 39%
    13:00 +27°C° 0 mm 1 mps 767 mmHg 34%
    14:00 +27°C° 0 mm 1 mps 767 mmHg 34%
    15:00 +27°C° 0 mm 1 mps 767 mmHg 34%
    16:00 +27°C° 0 mm 1 mps 767 mmHg 34%
    17:00 +25°C° 0 mm 2 mps 767 mmHg 41%
    18:00 +23°C° 0 mm 2 mps 767 mmHg 49%
    19:00 +20°C° 0 mm 3 mps 767 mmHg 56%
    20:00 +19°C° 0 mm 2 mps 767 mmHg 57%
    21:00 +19°C° 0 mm 2 mps 767 mmHg 58%
    22:00 +18°C° 0 mm 2 mps 768 mmHg 59%
    23:00 +18°C° 0 mm 2 mps 767 mmHg 60%

    20 September, Friday

    Time Temperature Precipitation Wind Pressure Humidity
    00:00 +17°C° 0 mm 2 mps 767 mmHg 60%
    01:00 +18°C° 0 mm 1 mps 767 mmHg 61%
    02:00 +18°C° 0 mm 1 mps 767 mmHg 63%
    03:00 +18°C° 0 mm 1 mps 767 mmHg 65%
    04:00 +16°C° 0 mm 1 mps 767 mmHg 67%
    05:00 +18°C° 0 mm 1 mps 767 mmHg 67%
    06:00 +18°C° 0 mm 1 mps 767 mmHg 67%
    07:00 +17°C° 0 mm 2 mps 767 mmHg 67%
    08:00 +19°C° 0 mm 2 mps 767 mmHg 60%
    09:00 +21°C° 0 mm 2 mps 767 mmHg 53%
    10:00 +24°C° 0 mm 2 mps 767 mmHg 47%
    11:00 +25°C° 0 mm 2 mps 767 mmHg 43%
    12:00 +26°C° 0 mm 2 mps 766 mmHg 40%
    13:00 +27°C° 0 mm 3 mps 766 mmHg 37%
    14:00 +27°C° 0 mm 3 mps 765 mmHg 40%
    15:00 +27°C° 0 mm 3 mps 765 mmHg 42%
    16:00 +27°C° 0 mm 3 mps 764 mmHg 45%
    17:00 +26°C° 0 mm 3 mps 765 mmHg 50%
    18:00 +25°C° 0 mm 2 mps 765 mmHg 55%
    19:00 +24°C° 0 mm 2 mps 765 mmHg 60%
    20:00 +23°C° 0 mm 2 mps 765 mmHg 60%
    21:00 +23°C° 0 mm 2 mps 765 mmHg 61%
    22:00 +21°C° 0 mm 2 mps 765 mmHg 62%
    23:00 +21°C° 0 mm 2 mps 765 mmHg 63%
    Show more